{"data":{"norad_id":42810,"epoch":"2026-09-19T04:53:17.045664Z","epoch_age_seconds":127444,"freshness":"FRESH","line1":"1 42810U 17039H   26262.20366951  .00000122  00000+0  30186-4 0  9991","line2":"2 42810  86.4439 251.0277 0002346  86.6306 273.5163 14.43280405488670","mean_motion":14.43280405,"eccentricity":0.0002346,"inclination_deg":86.4439,"raan_deg":251.0277,"arg_perigee_deg":86.6306,"mean_anomaly_deg":273.5163,"bstar":3.0186e-5,"rev_number":48867,"period_min":99.772711872992,"perigee_km":746.00882163522,"apogee_km":749.35225522425,"semimajor_km":7125.8175384297,"source":"CELESTRAK","updated_at":"2026-09-20T09:00:36.323456Z"}}